SCP
0 0 0 0 0 0 0 0 0 0 0 0 0 0 0 0 0 0 0 0 0 0 0 0 0 0 0 0 0 0 0 0 0 0 0 0 0 0 0 0 0 0 0
0 0 0 0 0 0 0 0 0 0 0 0 0 0 0 0 0 0 0 0 0 0 0 0 0 0 0 0 0 0 0 0 0 0 0 0 0 0 0 0 0 0 0
0 0 0 0 0 0 0 0 0 0 0 0 0 0 -0 0 0 0 0 0 0 0 0 0 0 0 0 0 0 0 0 0 0 0 0 0 0 0 0 0 0 0 0
0 0 0 0 0 0 0 0 0 0 0 0 0 0 0 0 0 0 0 0 0 0 0 0 0 0 0 0 0 0 0 0 0 0 0 0 0 0 0 0 0 0 0
0 0 0 0 0 0 0 0 0 0 0 0 0 0 0 0 0 0 0 0 0 0 0 0 0 0 0 0 0 0 0 0 0 0 0 0 0 0 0 0 0 0 0
0 0 0 0 0 0 0 0 0 0 0 0 0 0 0 0 0 0 0 0 0 0 0 0 0 0 0 0 0 0 0 0 0 0 0 0 0 0 0 0 0 0 0
0 0 0 0 0 0 -0 0 0 0 0 0 0 0 0 0 0 0 0 0 0 0 0 0 0 0 0 0 0 0 0 0 0 0 0 0 0 0 0 0 0 0 0
0 0 0 0 0 0 0 0 0 0 0 0 0 0 0 0 0 0 0 0 0 0 0 0 0 0 0 0 0 0 0 0 0 0 0 0 0 0 0 0 0 0 0
0 0 0 0 0 0 0 0 0 0 0 0 0 0 0 0 0 0 0 0 0 0 0 0 0 0 0 0 0 0 0 0 0 0 0 0 0 0 0 0 0 0 0
0 0 0 0 0 0 0 0 0 0 0 0 0 0 0 0 0 0 0 0 0 0 0 0 0 0 0 0 0 0 0 0 0 0 0 0 0 0 0 0 0 0 0
0 0 0 0 0 0 0 0 0 0 0 0 0 0 0 0 0 0 0 0 0 0 0 0 0 0 0 0 0 0 0 0 0 0 0 0 0 0 0 0 0 0 0
0 0 0 0 0 0 0 0 0 0 0 0 0 0 0 0 0 0 0 0 0 0 0 0 0 0 0 0 0 0 0 0 0 0 0 0 0 0 0 0 0 0 0
0 0 0 0 0 0 0 0 0 0 0 0 0 0 0 0 0 0 0 0 0 0 0 0 0 0 0 0 0 0 0 0 0 0 0 0 0 0 0 0 0 0 0
0 0 0 0 0 0 0 0 0 0 0 0 0 0 0 0 0 0 0 0 0 0 0 0 0 0 0 0 0 0 0 0 0 0 0 0 0 0 0 0 0 0 0
0 0 0 0 0 0 0 0 0 0 0 0 0 0 0 0 0 0 0 0 0 0 0 0 0 0 0 0 0 0 0 0 0 0 0 0 0 0 0 0 0 0 0
0 0 0 0 0 0 0 0 0 0 0 0 0 0 0 0 0 0 0 0 0 -0 -0 -0 0 0 0 0 0 0 0 0 0 0 0 0 0 0 0 0 0 0 0
0 0 0 0 0 0 0 0 0 0 0 0 0 0 0 0 0 0 0 0 0 0 0 0 0 0 0 0 0 0 0 0 0 0 0 0 0 0 0 0 0 0 0
0 0 0 0 0 0 0 0 0 0 0 0 0 0 0 0 0 0 0 0 0 0 0 0 0 0 0 0 0 0 0 0 0 0 0 0 0 0 0 0 0 0 0
0 0 0 0 0 0 0 0 0 0 0 0 0 0 0 0 0 0 0 0 0 0 0 0 0 0 0 0 0 0 0 0 0 0 0 0 0 0 0 0 0 0 0
0 0 0 0 0 0 0 0 0 0 0 0 0 0 0 0 0 0 0 0 0 0 0 0 0 0 0 0 0 0 0 0 0 0 0 0 0 0 0 0 0 0 0
0 0 0 0 0 0 0 0 0 0 0 0 0 0 0 0 0 0 0 0 0 0 0 0 0 0 0 0 0 0 0 0 0 0 0 0 0 0 0 0 0 0 0
0 0 0 0 0 0 0 0 0 0 0 0 0 0 0 0 0 0 0 0 0 0 0 0 0 0 0 0 0 0 0 0 0 0 0 0 0 0 0 0 0 0 0
0 0 0 0 0 0 0 0 0 0 0 0 0 0 0 0 0 0 0 0 0 0 0 0 0 0 0 0 0 0 0 0 0 0 0 0 0 0 0 0 0 0 0
0 0 0 0 0 0 0 0 0 0 0 0 0 0 0 0 0 0 0 0 0 0 0 0 0 0 0 0 0 0 0 0 0 0 0 0 0 0 0 0 0 0 0
0 0 0 0 0 0 0 0 0 0 0 0 0 0 0 0 0 0 0 0 0 0 0 0 0 0 0 0 0 0 0 0 0 0 0 0 0 0 0 0 0 0 0
0 0 0 0 0 0 0 0 0 0 0 0 0 0 0 0 0 0 0 0 0 0 0 0 0 0 0 0 0 0 0 0 0 0 0 0 0 0 0 0 0 0 0
Wind_Speed
1 1 2 1 1 1 2 2 2 3 3 3 3 3 3 2 2 2 2 2 2 2 2 1 1 0 0 0 0 0 0 1 1 1 1 1 2 2 2 2 3 3 3
1 2 2 1 1 2 3 3 3 4 3 3 3 3 3 3 2 2 3 2 2 3 3 1 1 1 1 1 0 1 1 1 2 2 1 1 2 2 3 2 3 3 3
2 3 3 3 3 3 3 2 3 3 4 4 3 3 3 3 3 3 4 4 4 4 3 2 1 1 2 1 1 1 1 1 1 1 1 1 1 1 2 2 1 1 3
3 3 3 4 3 4 4 4 4 4 4 4 4 4 4 3 3 3 3 3 4 4 4 3 3 2 2 2 2 2 1 1 1 1 1 1 1 1 1 1 1 1 1
3 3 3 4 4 4 5 4 4 5 5 5 4 5 4 3 3 3 3 3 3 4 4 4 4 4 4 2 1 0 1 1 1 2 2 1 1 1 2 2 2 1 1
3 3 3 4 4 5 5 5 5 5 5 5 5 5 5 4 4 4 3 4 4 4 4 4 5 6 7 6 5 3 2 2 2 2 2 3 3 3 2 2 2 2 1
4 4 4 4 4 4 5 5 5 5 5 5 5 5 5 6 7 6 7 5 5 5 5 4 4 6 8 6 7 7 6 6 5 3 3 4 3 4 4 3 3 3 3
5 5 4 4 4 4 5 5 5 4 5 5 5 5 5 6 8 8 7 6 6 6 6 6 6 5 7 7 6 6 6 6 7 5 4 3 2 2 3 4 4 3 1
4 4 5 5 5 5 5 5 5 5 5 5 5 5 6 6 7 7 6 4 6 8 7 8 7 6 9 11 7 6 6 6 7 7 6 5 5 4 3 2 2 2 2
4 4 4 5 4 4 5 5 5 5 5 5 5 5 6 5 6 6 5 3 5 6 6 7 10 9 9 12 8 6 6 6 5 5 5 5 5 5 5 4 3 3 3
3 3 3 4 4 3 3 4 5 5 5 6 6 5 5 6 6 6 6 3 4 6 6 6 5 8 9 12 11 7 8 6 5 6 6 5 5 5 5 5 4 4 3
2 3 3 4 4 4 3 4 4 5 5 5 5 6 5 5 6 6 7 7 8 6 7 6 6 8 8 10 10 9 10 7 3 4 4 5 5 5 5 6 6 4 3
2 3 4 4 3 3 3 4 4 4 3 4 4 5 5 5 5 8 9 11 12 8 7 11 11 11 9 8 11 12 9 5 5 5 5 6 5 6 5 5 5 4 3
3 4 4 4 3 4 3 3 2 3 3 3 4 5 5 5 4 4 5 6 8 8 8 11 13 12 9 9 8 8 7 6 6 6 6 5 5 5 5 5 5 4 3
3 4 4 3 3 3 4 3 4 3 3 4 4 4 5 6 7 10 8 7 6 7 9 7 6 5 5 5 5 6 7 7 8 6 6 5 5 5 5 5 5 5 5
3 3 3 2 2 3 4 5 6 7 8 9 9 8 7 9 13 14 15 15 16 15 10 7 7 6 6 6 6 6 7 8 8 7 7 6 6 6 6 5 5 6 6
4 4 3 2 3 3 4 4 5 6 9 10 11 12 12 13 14 15 15 16 16 14 7 7 7 7 7 6 6 6 7 7 7 7 8 7 7 7 6 6 7 6 6
4 4 3 3 3 3 4 4 5 5 6 5 7 11 13 13 13 14 15 11 8 7 5 7 6 7 6 6 6 6 6 6 6 7 7 8 8 7 7 7 7 7 7
4 3 3 3 3 4 5 5 5 6 6 5 5 6 9 10 11 12 10 6 7 7 6 6 6 6 6 6 6 6 6 6 6 6 7 8 8 7 7 8 8 10 8
3 6 6 4 4 5 5 5 5 5 5 5 5 5 5 5 5 6 5 6 6 6 6 6 6 7 7 6 5 5 6 6 6 6 6 7 7 8 9 9 8 8 7
3 5 8 6 5 5 5 5 5 5 5 6 6 7 9 6 6 7 6 6 6 6 6 6 6 7 7 6 5 6 8 6 6 6 6 6 6 7 7 8 8 8 7
4 4 4 5 5 5 6 5 5 6 6 7 6 7 11 7 6 6 6 6 6 5 6 6 6 6 6 6 6 7 7 7 6 6 6 6 6 6 7 8 8 8 8
4 5 5 5 5 7 7 6 6 6 6 6 7 6 6 6 6 6 6 6 6 6 6 6 7 7 6 6 6 7 8 8 7 6 6 6 6 6 6 7 9 10 9
5 5 6 6 6 6 6 6 6 6 6 6 6 6 6 6 6 7 6 6 6 6 6 6 7 10 11 9 7 7 7 8 7 6 8 7 7 6 6 7 8 10 10
5 6 6 6 6 6 6 6 6 6 6 6 6 7 6 6 6 6 6 6 7 7 8 8 7 9 11 12 12 10 11 12 11 8 6 6 7 7 7 8 8 8 8
6 7 6 6 6 6 6 6 6 6 6 6 6 6 6 6 6 7 7 7 7 7 8 8 10 12 13 11 12 13 13 13 12 11 8 6 7 7 7 6 9 9 10
Wind_Direction
343 287 292 272 265 246 241 258 264 270 261 242 239 262 264 234 218 191 225 263 283 292 286 230 215 190 154 289 306 289 149 136 171 239 200 175 165 155 154 169 167 172 177
4 339 315 308 282 273 254 242 252 264 273 270 252 246 262 263 245 208 219 235 251 271 280 277 231 180 176 241 250 258 208 193 178 205 214 182 180 171 169 187 189 177 168
30 358 357 349 332 312 301 278 266 270 270 272 263 248 251 252 243 231 217 220 228 230 238 246 235 191 197 215 216 235 226 221 179 179 214 200 201 177 167 197 189 171 169
48 15 1 345 341 333 327 329 318 309 298 290 291 278 260 250 245 246 241 227 238 234 217 213 216 212 203 207 210 219 218 232 206 198 208 195 196 196 158 179 193 201 184
47 30 12 353 353 345 340 338 327 315 307 298 292 291 290 275 257 259 266 254 249 250 232 216 206 184 159 158 155 215 223 209 215 202 210 199 200 179 191 200 190 194 208
56 40 24 0 354 347 338 336 330 323 318 317 310 304 300 295 291 281 266 274 271 264 252 230 203 189 191 191 191 194 189 209 220 208 209 208 212 198 192 190 174 161 224
46 36 23 5 357 346 341 337 325 320 316 310 304 299 292 287 281 270 258 260 261 264 269 257 234 204 189 191 208 217 225 226 219 214 226 226 207 195 181 190 190 183 203
40 22 9 4 356 346 341 332 327 323 318 307 300 296 292 287 282 270 263 255 256 253 255 256 247 221 196 191 196 205 213 217 220 217 224 234 217 181 174 183 189 185 191
35 13 5 359 351 345 339 333 328 325 318 313 308 302 296 294 290 281 264 271 265 256 251 251 245 231 209 199 197 207 211 217 215 202 192 188 174 161 156 143 167 161 193
28 6 358 348 342 339 336 332 329 324 316 314 311 307 305 305 311 306 282 275 282 279 265 256 247 237 218 200 198 205 216 216 195 193 199 204 199 200 195 186 183 179 187
19 348 337 330 322 325 334 326 321 321 319 316 315 316 317 318 322 322 312 292 292 294 287 271 257 243 225 210 205 208 214 209 198 196 198 201 199 199 199 204 198 183 190
338 314 307 305 311 331 327 317 316 320 320 320 321 323 322 325 331 328 325 312 310 299 294 290 283 266 244 229 221 224 218 209 205 205 203 202 201 198 195 194 195 189 181
306 303 298 297 297 306 310 312 316 325 327 324 324 323 320 321 326 335 334 325 312 297 292 297 298 284 260 238 229 227 219 209 205 213 216 215 205 195 181 178 180 173 169
305 304 300 309 324 324 315 303 308 311 313 313 314 312 310 312 321 332 328 316 311 304 297 299 292 273 252 240 234 224 218 212 208 213 214 213 199 187 182 173 173 169 168
286 288 297 303 304 304 304 298 293 272 268 275 279 284 297 301 302 311 311 305 299 295 302 292 281 269 250 239 230 220 212 213 217 215 212 211 201 191 189 177 169 171 181
286 292 290 293 293 295 296 296 283 276 278 272 266 267 279 281 291 299 304 302 299 295 297 279 270 259 251 243 234 229 223 216 213 210 210 209 202 196 192 185 180 183 188
278 282 283 288 292 291 290 292 296 291 278 275 274 273 270 277 286 293 296 299 297 296 284 266 261 257 255 252 245 235 233 227 216 211 209 206 200 195 191 191 190 190 192
271 280 279 266 270 278 282 283 284 287 290 283 272 270 273 276 281 285 290 300 298 290 276 272 268 265 257 256 256 250 244 238 227 219 213 206 199 195 194 192 192 193 192
264 260 263 267 269 271 272 275 277 280 279 282 287 285 281 281 281 282 289 281 285 288 286 282 278 274 265 259 257 256 249 245 238 227 218 211 203 196 196 195 193 194 192
253 262 266 263 264 266 267 269 272 276 280 282 283 284 289 293 292 290 283 277 280 285 285 287 289 285 275 268 263 261 258 249 242 236 226 216 209 201 196 192 191 191 192
248 259 263 263 260 264 267 269 271 274 278 280 279 280 288 286 281 280 277 276 277 282 285 283 284 289 283 277 271 265 264 256 246 238 229 218 212 209 199 192 189 186 184
251 256 257 258 258 260 265 267 270 271 275 279 280 280 282 276 273 276 279 281 280 276 278 280 280 280 281 278 274 269 263 259 253 242 234 226 213 212 204 193 186 182 180
253 261 263 265 265 268 270 265 265 267 269 273 278 280 278 276 276 278 280 283 281 279 279 280 283 282 280 279 272 268 266 260 250 241 235 234 220 207 207 199 188 181 180
255 263 269 271 271 269 267 267 267 269 274 280 282 282 279 276 277 280 282 283 284 282 279 281 282 279 281 286 280 271 267 264 259 244 230 228 225 215 205 199 193 185 179
258 260 263 266 268 268 268 269 270 272 277 281 283 282 281 283 284 284 284 283 286 285 284 284 283 281 279 282 282 278 273 271 264 252 236 223 218 216 207 197 191 182 175
258 262 263 264 263 264 267 270 271 273 274 277 279 280 284 286 286 286 285 284 285 284 283 281 280 280 279 280 280 278 275 269 260 246 233 219 212 208 200 195 183 178 173